Location: Wildlife_Club
(35.6000°N, 81.4330°W)
Time: 14:45:32
(UTC-04:00)

Daily predictions for brighter satellites

Satellite Brightness Start Highest point End
(mag) Time Altitude Azimuth Time Altitude Azimuth Time Altitude Azimuth
Cosmos 1812 2.9 20:55:02 10° S 20:58:46 53° E 21:02:31 10° NNE
YAOGAN 6 2.8 20:56:39 10° SSE 21:00:17 58° ENE 21:03:56 10° N
Cosmos 1802 Rocket 4.1 20:55:54 10° S 21:02:06 66° E 21:08:24 10° NNE
Cosmos 1833 Rocket 3.1 20:57:00 10° SSW 21:02:36 70° WNW 21:08:14 10° NNE
H-2A R/B 3.9 21:04:58 10° E 21:06:56 12° ENE 21:08:55 10° NE
DNEPR-1 R/B 4.1 21:04:23 10° S 21:08:06 33° ESE 21:12:07 10° NE
Cosmos 2369 3.8 21:03:45 10° NNW 21:09:26 86° WSW 21:15:06 10° SSE
Abrixas rocket 3.6 21:10:28 10° S 21:12:45 18° SE 21:15:01 10° E
ERS-2 2.1 21:14:10 10° SSE 21:17:50 76° ENE 21:21:32 10° N
Gblst 52 Del rocket 4.1 21:12:30 10° NW 21:18:05 81° NE 21:22:59 13° SE
Cosmos 44 3.6 21:13:02 10° NNW 21:18:25 88° WSW 21:23:49 10° SSE
NOSS 3-2 (A) 3.6 21:13:02 10° S 21:18:27 44° ESE 21:24:20 10° NE
ATLAS CENTAUR R/B 2.8 21:15:33 10° N 21:19:37 31° NE 21:23:09 13° ESE
NOSS 3-2 (C) 4.0 21:16:51 10° S 21:21:54 32° ESE 21:27:18 10° NE
Okean 2 Rocket 4.1 21:18:22 10° NNW 21:22:37 47° W 21:26:52 10° SSW
USA 234 3.6 21:16:56 10° NE 21:23:29 72° NW 21:30:00 10° SW
Cosmos 1674 Rocket 3.5 21:20:57 10° S 21:25:23 77° E 21:29:52 10° N
Cosmos 1536 3.5 21:21:41 10° NNW 21:25:42 58° W 21:29:40 10° S
Cosmos 1378 Rocket 3.9 21:21:45 10° SSE 21:25:50 42° E 21:29:55 10° NNE
Okean 1 Rocket 3.8 21:22:38 10° NNE 21:26:35 33° ENE 21:29:27 16° SE
Resurs 01 Rocket 1.6 21:25:28 10° SSE 21:29:52 89° E 21:34:18 10° NNW
Atlas Centaur 2 1.8 21:26:52 10° WSW 21:30:16 34° S 21:32:11 19° ESE
Delta 168 4.2 21:29:14 10° SSW 21:30:57 14° S 21:31:31 13° SSE
Tiangong 2 1.3 21:28:25 10° SW 21:31:27 47° SSE 21:34:27 10° ENE
Cosmos 2082 Rocket 3.6 21:27:24 10° SW 21:32:44 43° WNW 21:38:09 10° N
Cosmos 1777 Rocket 4.1 21:28:33 10° NNW 21:33:45 78° WSW 21:38:56 10° S
COSMOS 2487 2.4 21:32:02 10° SSW 21:35:31 89° W 21:39:02 10° NNE
NOAA 11 4.2 21:30:21 10° SSE 21:35:48 73° ENE 21:41:15 10° N
Cosmos 1975 3.9 21:33:01 10° NNE 21:36:31 27° ENE 21:38:14 20° ESE
Cosmos 2322 Rocket 3.9 21:35:12 10° NNE 21:39:00 18° NE 21:42:00 12° E
Cosmos 1184 Rocket 4.1 21:37:14 10° SSW 21:40:26 42° W 21:43:38 10° N
Cosmos 1864 Rocket 4.4 21:34:53 10° S 21:41:04 82° E 21:47:13 10° N
SL-16 R/B 3.7 21:41:14 10° N 21:45:35 22° ENE 21:48:26 15° E
Timation 2 Rocket 4.1 21:42:40 10° S 21:48:20 46° ESE 21:54:02 10° NE
USA 186 4.1 21:45:54 10° SSW 21:48:20 22° W 21:50:52 10° NW
ARGOS 3.5 21:49:16 22° SE 21:52:30 47° ENE 21:57:39 10° N
IUS-9 SRM-1 4.4 21:49:09 10° WSW 21:53:24 42° SSE 22:11:49 10° ESE
SPOT 5 4.5 21:54:04 15° E 21:55:06 16° ENE 21:57:44 10° NNE
CENTAUR R/B 3.3 21:55:22 23° ESE 21:56:21 24° ESE 22:01:18 10° ENE
GPS 2-04 Rocket1 2.8 21:53:26 10° W 21:57:42 77° S 21:59:43 30° ESE
Cosmos 2360 4.2 21:52:49 10° NNW 21:58:33 87° ENE 22:02:15 23° SSE
ATLAS 3B R/B 3.3 21:58:42 10° SW 22:05:50 61° WNW 22:12:44 10° NNE
Okean 1 4.2 22:09:04 10° SSW 22:12:59 49° W 22:16:56 10° N
Delta 7925 Rocket 4.3 22:10:37 10° SW 22:14:13 26° S 22:14:13 26° S
Spot 2 Rocket 4.5 22:11:22 12° S 22:15:50 42° W 22:20:38 10° NNW
Cosmos 44 Rocket 4.5 22:12:25 10° NW 22:17:13 39° WSW 22:20:20 20° S
Cosmos 2084 3.5 22:17:49 40° SSE 22:18:55 53° ESE 22:22:59 10° NE
Terra 3.7 22:20:00 16° ENE 22:20:30 16° ENE 22:23:19 10° NNE
Cosmos 1697 Rocket 4.2 22:17:40 10° NW 22:22:32 30° WSW 22:27:06 11° SSW
Tsikada Rocket 4.4 22:17:21 10° NNW 22:23:40 62° W 22:28:50 16° S
Cosmos 468 Rocket 4.1 22:18:35 10° SSW 22:23:53 81° WNW 22:29:09 10° NNE
USA 245 3.6 22:25:00 39° NE 22:25:00 39° NE 22:28:00 10° N
Shenzhou-11 Module 4.5 22:23:07 10° NW 22:25:24 20° N 22:26:58 14° NE
Cosmos 1937 Rocket 4.0 22:21:58 10° N 22:26:50 41° ENE 22:27:55 37° E
ISS -1.6 22:25:54 10° W 22:28:45 27° NW 22:31:37 10° NNE
MetOp-B 4.1 22:27:45 36° SSE 22:30:01 90° SW 22:35:24 10° NNW
SL-08 RB Rocket 3.6 22:29:45 48° SSE 22:31:00 89° ENE 22:35:33 10° NNW
Cosmos 2360 Rocket 3.7 22:27:24 10° N 22:31:38 21° ENE 22:33:03 19° ENE
Cosmos 1980 Rocket 3.0 22:29:08 10° NW 22:34:29 44° WSW 22:37:31 24° SSW
Cosmos 1763 Rocket 3.4 22:34:07 30° S 22:36:51 82° ESE 22:42:10 10° NNE
Cosmos 841 Rocket 3.5 22:37:55 51° SE 22:38:42 57° ESE 22:43:51 10° NNE
Meteor 2-9 Rocket 4.1 22:34:19 10° N 22:39:37 64° E 22:40:44 51° SE
SPOT 1/Viking Rocket 3.8 22:40:44 46° ESE 22:41:35 52° ENE 22:46:36 10° N
Cosmos 1666 3.5 22:38:00 10° NNW 22:41:45 47° W 22:42:32 40° SW
Cosmos 1743 3.3 22:39:29 10° NNW 22:43:12 49° W 22:43:46 45° SW
H-2A R/B 2.1 22:44:12 43° SSW 22:45:43 66° WSW 22:50:40 10° NNW
OAO 1 Rocket 4.3 22:40:35 10° WSW 22:45:55 78° S 22:47:11 53° E
Meteor 2-4 Rocket 3.5 22:45:42 40° S 22:47:42 87° W 22:53:14 10° N
Cosmos 858 Rocket 4.4 22:42:46 10° NNW 22:47:58 78° ENE 22:48:49 62° SE
Abrixas rocket 3.5 22:45:52 10° WSW 22:48:34 39° NW 22:48:34 39° NW
CZ-2C R/B 4.3 22:45:08 10° NE 22:47:57 20° ENE 22:47:57 20° ENE
DMSP B5D2-2 4.0 22:45:04 10° NNE 22:50:23 89° W 22:52:04 45° SSW
Cosmos 1340 Rocket 2.9 22:51:32 68° NNE 22:51:32 68° NNE 22:55:08 10° N
Helios 1B rocket 2.8 22:49:25 10° NNE 22:52:46 53° NE 22:52:46 53° NE
Cosmos 1833 4.2 22:53:11 57° SE 22:53:43 60° ESE 22:59:20 10° NNE
Cosmos 1455 Rocket 3.0 22:51:56 10° N 22:56:06 77° NE 22:56:06 77° NE
ATLAS CENTAUR R/B 3.2 22:54:36 10° NW 22:58:30 27° WSW 22:59:25 25° SW
Cosmos 1242 Rocket 4.0 22:59:14 10° NNW 23:02:29 32° W 23:02:29 32° W
Cosmos 1898 Rocket 3.9 22:59:23 10° NNW 23:04:35 58° WSW 23:05:31 50° SW
Tiangong 2 3.6 23:05:21 10° W 23:06:45 21° WNW 23:06:45 21° WNW
ERS-1 Rocket 3.6 23:08:00 41° SW 23:08:59 47° W 23:13:50 10° NNW
BREEZE M DEB (TANK) 2.8 23:06:53 10° NW 23:13:13 63° NNW 23:13:13 63° NNW
Meteor 1-15 Rocket 4.2 23:10:54 10° N 23:16:38 67° E 23:16:45 67° E
Cosmos 292 Rocket 4.0 23:16:51 60° W 23:17:13 62° WNW 23:21:57 10° N
Cosmos 1544 Rocket 4.3 23:18:46 10° NNW 23:22:46 47° W 23:22:46 47° W
Cosmos 2322 Rocket 2.4 23:17:55 10° NNW 23:23:26 58° WSW 23:23:50 56° SW
SL-16 R/B 2.7 23:24:29 10° NNW 23:29:53 47° WSW 23:30:19 46° WSW
Cosmos 2150 Rocket 4.1 23:25:14 10° NNW 23:30:25 68° W 23:30:25 68° W
Nadezhda 4 Rocket 3.9 23:25:11 10° N 23:31:30 75° E 23:31:47 73° ESE
SPOT 5 3.8 23:33:17 37° W 23:33:17 37° W 23:36:56 10° NNW
CZ-2C R/B 3.3 23:41:02 67° NNE 23:41:02 67° NNE 23:45:54 10° N
Nimbus 7 Rocket 4.3 23:35:59 10° N 23:41:52 79° WNW 23:42:12 75° WSW
SJ 16-02 2.6 23:39:07 10° N 23:42:00 38° N 23:42:00 38° N
CENTAUR R/B 3.3 23:42:23 19° WSW 23:46:25 48° NW 23:52:55 10° NNE
